Regional Weather Roundup
Issued by NWS

Home | Current Version | Previous Version | Text Only | Print | Product List | Glossary Off
Versions: 1 2 3 4 5 6 7 8 9 10 11 12 13 14 15 16 17 18 19 20 21 22 23 24 25 26 27 28 29 30 31 32 33 34 35 36 37 38 39 40 41 42 43 44 45 46 47 48 49 50

000
ASUS45 KABQ 031301
RWRNM
NEW MEXICO REGIONAL WEATHER ROUNDUP
NATIONAL WEATHER SERVICE ALBUQUERQUE NM
700 AM MDT MON AUG 03 2015

NOTE: "FAIR" MEANS FEW OR NO CLOUDS BELOW 12,000 FEET AGL WITH NO
       SIGNIFICANT WEATHER OR OBSTRUCTIONS TO VISION.

      THIS PRODUCT IS RELEASED AS TWO VERSIONS.  ONE VERSION NEAR
      THE TOP OF THE HOUR CONTAINING PRELIMINARY DATA FROM ALBUQUERQUE
      AND OTHER STATIONS.  A FINAL VERSION WITH ADDITIONAL DATA IS
      ISSUED ABOUT 10 MINUTES AFTER THE HOUR.

NMZ501-503-504-510>518-031400-
NORTHWEST PLATEAU/NORTHCENTRAL MOUNTAINS

CITY           SKY/WX    TMP DP  RH WIND       PRES   REMARKS
FARMINGTON     CLEAR     58  57  97 E5        30.18R
LOS ALAMOS     CLEAR     59  52  76 NW3       30.27S
SANTA FE       CLEAR     59  56  89 N8        30.21R
TAOS           PTCLDY    55  46  71 CALM      30.28R
ANGEL FIRE     PTSUNNY   50  49  96 CALM      30.35R

$$
NMZ402-403-502-505>509-031400-
WESTCENTRAL MOUNTAINS/SOUTHWEST MOUNTAINS

CITY           SKY/WX    TMP DP  RH WIND       PRES   REMARKS
GALLUP         FOG       50  48  93 CALM      30.24S VSB 1/2
GRANTS         FOG       55  55 100 CALM      30.26S VSB<1/4
SILVER CITY      N/A     63  57  82 N7        30.17R

$$
NMZ407-409-411-412-031400-
SOUTHERN DESERTS

CITY           SKY/WX    TMP DP  RH WIND       PRES   REMARKS
LORDSBURG      FAIR      68  59  73 CALM      30.08R
DEMING         PTCLDY    67  62  84 CALM      30.07R
LAS CRUCES     MOCLDY    70  64  80 E3        30.10R
HOLLOMAN AFB   CLOUDY    70  61  74 NW2       30.04R
ALAMOGORDO     MOCLDY    68  59  73 SE6       30.07R
T OR C         MOCLDY    68  59  73 NW6       30.11R

$$
NMZ519>523-031400-
CENTRAL VALLEYS/CENTRAL HIGHLANDS

CITY           SKY/WX    TMP DP  RH WIND       PRES   REMARKS
ALBUQUERQUE    PTCLDY    65  59  81 S3        30.17R
DOUBLE EAGLE   PTCLDY    57  57 100 W5        30.20R
MORIARTY ARPT    N/A     57  54  89 CALM      30.23R
CLINES CORNERS CLEAR     58  54  86 W8        30.24R
BELEN          FAIR      62  59  91 CALM      30.17R
SOCORRO        NOT AVBL

$$
NMZ524>526-539-540-031400-
SOUTHCENTRAL MOUNTAINS

CITY           SKY/WX    TMP DP  RH WIND       PRES   REMARKS
RUIDOSO          N/A    N/A N/A N/A MISG        N/A

$$
NMZ527>531-031400-
NORTHEAST HIGHLANDS/NORTHEAST PLAINS

CITY           SKY/WX    TMP DP  RH WIND       PRES   REMARKS
RATON          NOT AVBL
CLAYTON        PTSUNNY   68  63  84 SW10      30.08R

$$
NMZ532>537-031400-
EASTCENTRAL PLAINS

CITY           SKY/WX    TMP DP  RH WIND       PRES   REMARKS
TUCUMCARI      PTCLDY    69  66  90 CALM      30.03F
CANNON AFB     PTCLDY    67  65  93 CALM      30.07S
CLOVIS AIRPORT MOSUNNY   66  63  88 W7        30.08S

$$
NMZ028-029-538-031400-
SOUTHEAST PLAINS

CITY           SKY/WX    TMP DP  RH WIND       PRES   REMARKS
ROSWELL        MOCLDY    75  64  68 NE8       30.01S
ARTESIA        MOCLDY    75  64  69 N5        30.03R
CARLSBAD       CLOUDY    77  64  64 NW8       30.00R
HOBBS          MOCLDY    72  64  78 VRB7      30.03S


$$


USA.gov is the U.S. government's official web portal to all federal, state and local government web resources and services.